"Pseudo-MPEC" for Sar2905

Created 2026 Sep 5 10:35:16 UT using Find_Orb

Click here for an explanation of pseudo-MPECs

 
 Astrometry: 
     Sar2905*1C2026 09 05.00098223 51 17.06 +09 52 04.7    ~950Z 19.3 GVNEOCPK88
     Sar2905 1C2026 09 05.00392623 51 21.00 +09 53 25.0    ~950Z 19.6 GVNEOCPK88
     Sar2905 1C2026 09 05.00687623 51 24.99 +09 54 45.8    ~950Z 19.2 GVNEOCPK88
     Sar2905 1C2026 09 05.02012423 51 42.76 +10 00 50.4    ~951K       VNEOCPK88
     Sar2905 1C2026 09 05.02312523 51 46.80 +10 02 13.0    ~951K       VNEOCPK88
     Sar2905 1C2026 09 05.02612423 51 50.84 +10 03 35.6    ~951K 19.4 GVNEOCPK88
     Sar2905 0C2026 09 05.02804823 51 57.715+10 04 16.97   ~951K 19.1 GWNEOCPJ95
     Sar2905 0C2026 09 05.03347023 52 05.100+10 06 47.63   ~951K 18.8 GWNEOCPJ95
     Sar2905 KB2026 09 05.03683323 52 06.533+10 08 39.77   ~951Z 19.4 GXNEOCP595
     Sar2905 0C2026 09 05.04117823 52 15.569+10 10 21.65   ~951K 19.1 GWNEOCPJ95
     Sar2905 KB2026 09 05.04215923 52 13.721+10 11 07.15   ~951Z 19.3 GXNEOCP595
     Sar2905 KB2026 09 05.04748523 52 20.974+10 13 35.65   ~951Z 19.4 GXNEOCP595
     Sar2905 1C2026 09 05.07510023 52 57.66 +10 26 14.3    ~952Z 19.2 GVNEOCPK88
     Sar2905 1C2026 09 05.07886023 53 02.87 +10 27 59.0    ~952Z 19.6 GVNEOCPK88
     Sar2905 1C2026 09 05.08166523 53 06.72 +10 29 16.8    ~952Z 19.5 GVNEOCPK88
     Sar2905 KB2026 09 05.30610023 58 49.562+12 17 31.31   ~957o 19.1 GXNEOCP734
     Sar2905 KB2026 09 05.31458323 59 01.896+12 21 41.58   ~957o 19.3 GXNEOCP734
     Sar2905 !C2026 09 05.33126223 59 31.951+12 30 12.60   ~958K 19.6 GWNEOCP673
     Sar2905 !C2026 09 05.33255823 59 33.866+12 30 51.37   ~958K 19.3 GWNEOCP673

Station data:
(595) Farra d'Isonzo  (N45.915731 E13.525780)  Italy.  Observers S. Aschi, E.
   Pettarin, G. Panterotto. Measurers S. Aschi, E. Pettarin. 0.40-m f/5.15
   reflector + CCD.
(673) Table Mountain Observatory, Wrightwood  (N34.381485 W117.682170)
   US/California.  Observers J. Chesley, J. Pittichova. Measurer W. M. Owen
   Jr. 0.61-m f/16 reflector + CCD.
(734) Farpoint Observatory, Eskridge  (N38.890239 W96.002420)  US/Kansas.
   Observer G. Hug. 0.69-m reflector + CCD.
(J95) Great Shefford  (N51.474969 W1.447003)  UK/England.  Observer P.
   Birtwhistle. 0.41-m f/6.3 Schmidt-Cassegrain + CCD.
(K88) GINOP-KHK, Piszkéstető  (N47.917453 E19.893670)  Hungary.  Observer K.
   Sárneczky. 0.60-m Schmidt + CCD.

Orbital elements:  Sar2905
   Perihelion 2026 Oct 8.820541 +/- 0.128 TT = 19:41:34.7 (JD 2461322.320541)
Epoch 2026 Sep  5.0 TT = JDT 2461288.5   Earth MOID: 0.0162   Ma: 0.0370
M 351.381684020 +/- 0.08            (J2000 ecliptic)             AutoNEOCP
n   0.254824900 +/- 0.00225         Peri.   47.205518 +/- 0.22
a   2.464004373 +/- 0.0145          Node   339.475383 +/- 0.007
e   0.62336299 +/- 0.0024           Incl.    5.684803 +/- 0.016
P   3.86778                H 25.81  G  0.15   U  8.6
q 0.928035237 +/- 0.0011    Q 3.999973509 +/- 0.0294
From 19 observations 2026 Sept. 5 (8.0 hr); mean residual 0".39
Residuals in arcseconds: 
260905 K88  .38+  1.3+    260905 J95  .13+  .01+    260905 K88  .59-  .25-    
260905 K88  .32+  .74+    260905 595  .27+  .15-    260905 734  .46+  .24+    
260905 K88  .83+  .43+    260905 J95  .07+  .27+    260905 734  .18-  .16+    
260905 K88  .17+  .19+    260905 595  .02-  .28-    260905 673  .19-  .31-    
260905 K88  .06+  .02+    260905 595  .44+  .56+    260905 673  .01+  .07-    
260905 K88  .08-  .15-    260905 K88  .41-  .28+    
260905 J95  .32-  .47-    260905 K88  .15-  .18+    

Ephemerides (geocentric):
Date (UTC) HH   RA             Dec           delta  r     elong  mag " sig PA
---- --------  ------------   ------------  ------ ------ -----  --- --------
2026 09 05 11  00 02 50.009   +13 35 30.76  .03205 1.0371 153.6 19.6 .774  56
2026 09 05 12  00 03 57.886   +13 56 45.05  .03189 1.0368 153.2 19.6 1.17  50
2026 09 05 13  00 05 06.629   +14 18 10.46  .03174 1.0366 152.8 19.6 1.63  46
2026 09 05 14  00 06 16.251   +14 39 46.93  .03159 1.0363 152.4 19.6 2.15  44
2026 09 05 15  00 07 26.766   +15 01 34.40  .03144 1.0361 151.9 19.6 2.74  43
2026 09 05 16  00 08 38.187   +15 23 32.79  .03129 1.0358 151.5 19.6 3.39  42
2026 09 05 17  00 09 50.527   +15 45 42.01  .03114 1.0356 151.1 19.6 4.11  41
2026 09 05 18  00 11 03.802   +16 08 01.99  .03100 1.0353 150.6 19.6 4.89  41
2026 09 05 19  00 12 18.023   +16 30 32.61  .03086 1.0351 150.2 19.6 5.75  40
2026 09 05 20  00 13 33.207   +16 53 13.76  .03072 1.0348 149.7 19.6 6.67  40
2026 09 05 21  00 14 49.366   +17 16 05.32  .03059 1.0346 149.3 19.6 7.66  40
2026 09 05 22  00 16 06.515   +17 39 07.16  .03045 1.0343 148.8 19.6 8.72  40
2026 09 05 23  00 17 24.669   +18 02 19.12  .03032 1.0341 148.4 19.6 9.85  40
2026 09 06 00  00 18 43.841   +18 25 41.06  .03019 1.0338 147.9 19.6 11.1  40
2026 09 06 01  00 20 04.048   +18 49 12.79  .03006 1.0336 147.4 19.6 12.3  40
2026 09 06 02  00 21 25.304   +19 12 54.15  .02994 1.0333 147.0 19.6 13.7  40
2026 09 06 03  00 22 47.624   +19 36 44.94  .02981 1.0331 146.5 19.6 15.1  40
2026 09 06 04  00 24 11.022   +20 00 44.94  .02969 1.0328 146.0 19.6 16.7  40
2026 09 06 05  00 25 35.514   +20 24 53.95  .02958 1.0326 145.5 19.6 18.3  40
2026 09 06 06  00 27 01.114   +20 49 11.72  .02946 1.0323 145.0 19.6 19.9  40
2026 09 06 07  00 28 27.840   +21 13 38.02  .02935 1.0321 144.5 19.6 21.7  40
2026 09 06 08  00 29 55.704   +21 38 12.58  .02924 1.0318 144.0 19.7 23.5  40
2026 09 06 09  00 31 24.723   +22 02 55.13  .02913 1.0316 143.5 19.7 25.5  40
2026 09 06 10  00 32 54.913   +22 27 45.39  .02902 1.0314 143.0 19.7 27.5  40
2026 09 06 11  00 34 26.288   +22 52 43.05  .02892 1.0311 142.5 19.7 29.6  40
2026 09 06 12  00 35 58.863   +23 17 47.81  .02882 1.0309 142.0 19.7 31.7  41
2026 09 06 13  00 37 32.655   +23 42 59.33  .02872 1.0306 141.5 19.7 34.0  41
2026 09 06 14  00 39 07.678   +24 08 17.26  .02863 1.0304 141.0 19.7 36.4  41
2026 09 06 15  00 40 43.947   +24 33 41.26  .02854 1.0301 140.5 19.7 38.8  41
2026 09 06 16  00 42 21.478   +24 59 10.96  .02845 1.0299 139.9 19.7 41.3  41
2026 09 06 17  00 44 00.286   +25 24 45.96  .02836 1.0296 139.4 19.7 43.9  41
2026 09 06 18  00 45 40.385   +25 50 25.87  .02828 1.0294 138.9 19.7 46.6  41
2026 09 06 19  00 47 21.790   +26 16 10.28  .02820 1.0292 138.3 19.7 49.4  42
2026 09 06 20  00 49 04.516   +26 41 58.76  .02812 1.0289 137.8 19.7 52.2  42
2026 09 06 21  00 50 48.577   +27 07 50.87  .02804 1.0287 137.2 19.7 55.2  42
2026 09 06 22  00 52 33.986   +27 33 46.16  .02797 1.0284 136.7 19.7 58.2  42
2026 09 06 23  00 54 20.759   +27 59 44.17  .02790 1.0282 136.1 19.8 61.3  42
2026 09 07 00  00 56 08.908   +28 25 44.41  .02784 1.0279 135.6 19.8 64.5  43
2026 09 07 01  00 57 58.447   +28 51 46.39  .02777 1.0277 135.0 19.8 67.8  43
2026 09 07 02  00 59 49.388   +29 17 49.61  .02771 1.0275 134.5 19.8 71.2  43
2026 09 07 03  01 01 41.744   +29 43 53.56  .02766 1.0272 133.9 19.8 74.6  43
2026 09 07 04  01 03 35.527   +30 09 57.71  .02760 1.0270 133.4 19.8 78.1  43
2026 09 07 05  01 05 30.748   +30 36 01.52  .02755 1.0267 132.8 19.8 81.7  44
2026 09 07 06  01 07 27.419   +31 02 04.46  .02750 1.0265 132.2 19.8 85.4  44
2026 09 07 07  01 09 25.550   +31 28 05.95  .02746 1.0263 131.7 19.8 89.2  44
2026 09 07 08  01 11 25.150   +31 54 05.44  .02741 1.0260 131.1 19.9 93.0  44
2026 09 07 09  01 13 26.230   +32 20 02.35  .02737 1.0258 130.5 19.9 96.8  45
2026 09 07 10  01 15 28.797   +32 45 56.11  .02734 1.0255 129.9 19.9  101  45